Location: Unspecified
(0.0000°N, 0.0000°E)
Time: 18:22:26
(UTC+00:00)

deb Briz - Pass Details

Date: 17 February 2026
Orbit: 1949 x 2166 km, 64.8° (Epoch: 6 March)

Event Time Altitude Azimuth Distance (km) Brightness Sun altitude
Rises 18:35:53 0° 219° (SW) 5,438 ? -5.4°
Reaches altitude 10° 18:39:32 10° 225° (SW) 4,413 ? -6.3°
Maximum altitude 18:49:44 40° 291° (WNW) 2,637 ? -8.8°
Drops below altitude 10° 18:59:53 10° 357° (N) 4,354 ? -11.2°
Sets 19:03:31 0° 5° (N) 5,359 ? -12.1°
